[[{"header":{"parameterUnit":"m.s-1","parameterCategory":1,"la1":30.2991,"la2":30.254,"lo1":-89.0895,"lo2":-89.0444,"dy":0.0017,"dx":0.0017,"nx":28,"ny":28,"refTime":"2024-10-03T21:00:00:Z","depth":0,"parameterNumber":2,"parameterNumberName":"U-component_of_WINDS"},"data":[0,0,0,0,0,0,0,0,0,0,0,0,0,0,0,0,0,0,0,0,0,0,0,0,0,0,0,0,0,0,0,0,0,0,0,0,0,0,0,0,0,0,0,0,0,0,0,0,0,0,0,0,0,0,0,0,0,0,-1.665,-1.6651,0,-1.6732,-1.6733,-1.6734,-1.675,-1.675,-1.6749,-1.6748,-1.6832,-1.6835,-1.6838,0,0,0,0,0,0,0,0,0,0,0,0,0,-1.6508,-1.651,-1.665,-1.6651,-1.6652,-1.6732,-1.6733,-1.6734,-1.675,-1.675,-1.6749,-1.6748,-1.6831,-1.6835,-1.6838,0,0,0,0,0,0,0,0,0,0,0,0,0,-1.6577,-1.6511,-1.6649,-1.6669,-1.6672,-1.6732,-1.6733,-1.6734,-1.675,-1.675,-1.6749,-1.6748,-1.683,-1.6834,-1.6839,-1.6884,0,0,-1.6852,-1.6853,0,0,0,0,0,0,0,0,-1.6573,-1.6583,-1.6665,-1.6668,-1.6671,-1.673,-1.6714,-1.6785,-1.6751,-1.6721,-1.6748,-1.6747,-1.6799,-1.6806,-1.6823,-1.6888,-1.6891,-1.6852,-1.6855,-1.6856,-1.6858,0,0,0,0,0,0,0,-1.6569,-1.6579,-1.6682,-1.6667,-1.667,-1.6675,-1.6684,-1.6727,-1.6764,-1.6723,-1.6725,-1.6734,-1.68,-1.6819,-1.6825,-1.6893,-1.6852,-1.6856,-1.6858,-1.686,-1.7,-1.7001,0,0,0,0,0,0,-1.656,-1.6575,-1.668,-1.6685,-1.6619,-1.6678,-1.6688,-1.6712,-1.6764,-1.6771,-1.6735,-1.6735,-1.6812,-1.682,-1.6828,-1.6885,-1.6856,-1.686,-1.6863,-1.6999,-1.7,-1.7002,0,0,0,0,0,0,-1.6557,-1.6569,-1.6676,-1.663,-1.6644,-1.6681,-1.6708,-1.6714,-1.6733,-1.6773,-1.6779,-1.6747,-1.6812,-1.6822,-1.687,-1.6888,-1.6862,-1.6866,-1.6997,-1.6999,-1.7001,-1.6999,0,0,0,0,0,0,-1.6553,-1.6568,-1.6585,-1.6631,-1.6647,-1.6716,-1.6709,-1.6716,-1.674,-1.6741,-1.6786,-1.6792,-1.6812,-1.6864,-1.6875,-1.6894,-1.6869,-1.6996,-1.6998,-1.7,-1.6997,-1.7,-1.7003,0,0,0,0,0,-1.6548,-1.6581,-1.6586,-1.6598,-1.6669,-1.6717,-1.6726,-1.6748,-1.6742,-1.6759,-1.6785,-1.6791,-1.6885,-1.6869,-1.6881,-1.6901,-1.6995,-1.6998,-1.7,-1.6996,-1.6999,-1.7002,0,0,0,0,0,0,-1.6536,-1.6587,-1.6593,-1.6642,-1.6675,-1.672,-1.6743,-1.6751,-1.6787,-1.6786,-1.6812,-1.6822,-1.6868,-1.689,-1.6871,-1.6949,-1.694,-1.6945,-1.6932,-1.6936,-1.6939,-1.6932,-1.6873,0,0,0,0,0,-1.654,-1.6574,-1.6617,-1.6656,-1.6673,-1.6705,-1.6727,-1.6741,-1.6776,-1.679,-1.682,-1.6854,-1.6891,-1.6915,-1.6952,-1.7001,-1.7012,-1.7022,-1.7024,-1.7026,-1.703,-1.7059,-1.7064,-1.701,-1.701,-1.701,0,0,-1.6546,-1.6579,-1.6599,-1.6655,-1.6682,-1.6718,-1.6717,-1.6754,-1.6781,-1.6796,-1.6843,-1.6866,-1.6906,-1.6955,-1.6978,-1.6975,-1.7047,-1.703,-1.7031,-1.7034,-1.7062,-1.7067,-1.7071,-1.7012,-1.7012,-1.7011,0,0,-1.6577,-1.6605,-1.6641,-1.6668,-1.671,-1.6732,-1.674,-1.6784,-1.68,-1.6848,-1.686,-1.6893,-1.6957,-1.6985,-1.7008,-1.7051,-1.7058,-1.7063,-1.7076,-1.7103,-1.7108,-1.7111,-1.7127,-1.7132,-1.7067,-1.7067,-1.7067,0,-1.658,-1.6634,-1.6658,-1.6695,-1.672,-1.6736,-1.6773,-1.6799,-1.685,-1.6867,-1.6863,-1.6944,-1.6972,-1.7028,-1.7039,-1.7057,-1.7068,-1.7057,-1.7105,-1.7109,-1.7113,-1.7128,-1.7134,-1.7067,-1.7067,-1.7067,-1.7067,0,-1.6636,-1.6673,-1.6697,-1.6747,-1.6774,-1.6811,-1.6841,-1.6866,-1.6879,-1.6901,-1.695,-1.6985,-1.7029,-1.7044,-1.7056,-1.7103,-1.7099,-1.71,-1.7091,-1.7118,-1.7132,-1.7138,-1.7067,-1.7067,-1.7067,-1.7067,0,0,-1.6659,-1.6723,-1.6731,-1.6754,-1.6802,-1.6832,-1.687,-1.6914,-1.6935,-1.6971,-1.7004,-1.7058,-1.706,-1.7085,-1.7102,-1.7126,-1.7158,-1.7124,-1.7125,-1.7128,-1.7212,-1.721,-1.7216,-1.7164,-1.7165,-1.7166,-1.7208,0,-1.6695,-1.6763,-1.6786,-1.6843,-1.6878,-1.6895,-1.6929,-1.6962,-1.6985,-1.7019,-1.7044,-1.7082,-1.7081,-1.7097,-1.7122,-1.7149,-1.7175,-1.7147,-1.7195,-1.7196,-1.7183,-1.7224,-1.7222,-1.7259,-1.7214,-1.7215,-1.7216,0,-1.6745,-1.6782,-1.6842,-1.6886,-1.6902,-1.6931,-1.6974,-1.7006,-1.7045,-1.706,-1.709,-1.7105,-1.7146,-1.7136,-1.7194,-1.7174,-1.7196,-1.7213,-1.7215,-1.7219,-1.7206,-1.7228,-1.7272,-1.7277,-1.7225,-1.7224,-1.7223,0,-1.6755,-1.682,-1.6864,-1.6884,-1.6937,-1.6957,-1.6981,-1.7019,-1.7044,-1.7082,-1.7098,-1.714,-1.7163,-1.7196,-1.7222,-1.7212,-1.7277,-1.727,-1.7291,-1.729,-1.7302,-1.7301,-1.7349,-1.7318,-1.7318,-1.7318,-1.7318,0,-1.6792,-1.6828,-1.687,-1.6897,-1.6938,-1.6966,-1.7006,-1.703,-1.7064,-1.7097,-1.7115,-1.7146,-1.7179,-1.7214,-1.7235,-1.728,-1.729,-1.7304,-1.7309,-1.7301,-1.73,-1.7315,-1.7312,-1.732,-1.7319,-1.7319,-1.7319,0,-1.681,-1.6839,-1.6889,-1.6936,-1.6948,-1.6977,-1.7017,-1.7045,-1.7069,-1.711,-1.7121,-1.7159,-1.7202,-1.7232,-1.7286,-1.7301,-1.7349,-1.7354,-1.7335,-1.7338,-1.7357,-1.7354,-1.7415,-1.7425,-1.7388,-1.7389,-1.7389,0,-1.6831,-1.6859,-1.6909,-1.6932,-1.6955,-1.6992,-1.7018,-1.7047,-1.7073,-1.7121,-1.7143,-1.7187,-1.7223,-1.729,-1.7323,-1.7365,-1.7371,-1.739,-1.7378,-1.737,-1.7371,-1.7368,-1.7371,-1.7391,-1.7391,-1.7392,-1.7392,0,-1.6864,-1.6878,-1.6914,-1.6956,-1.6986,-1.7021,-1.7056,-1.7074,-1.7109,-1.7138,-1.7182,-1.721,-1.7266,-1.731,-1.7356,-1.738,-1.7392,-1.7396,-1.7403,-1.7395,-1.7383,-1.7389,-1.7339,-1.7394,-1.7393,-1.7393,-1.7393,-1.7393,-1.6884,-1.691,-1.6949,-1.6989,-1.7019,-1.7051,-1.7079,-1.7107,-1.7144,-1.7192,-1.7207,-1.7253,-1.7293,-1.7355,-1.7381,-1.7418,-1.7417,-1.7427,-1.7429,-1.7431,-1.743,-1.7378,-1.7426,-1.7426,-1.7426,-1.7426,-1.7426,0,-1.6918,-1.6945,-1.6981,-1.7029,-1.7061,-1.707,-1.711,-1.7136,-1.7175,-1.7212,-1.7247,-1.7298,-1.7341,-1.7378,-1.7422,-1.7444,-1.7451,-1.7455,-1.7453,-1.7459,-1.7429,-1.7418,-1.7449,-1.7449,-1.7449,-1.7449,-1.7449,-1.7449,-1.6939,-1.6984,-1.7002,-1.7062,-1.7088,-1.7132,-1.7154,-1.7185,-1.7214,-1.7269,-1.7305,-1.7329,-1.7366,-1.7413,-1.7453,-1.7463,-1.7478,-1.7481,-1.7492,-1.7463,-1.7461,-1.7458,-1.7448,-1.7484,-1.7484,-1.7518,-1.7519,-1.7519]},{"header":{"parameterUnit":"m.s-1","parameterCategory":1,"la1":30.2991,"la2":30.254,"lo1":-89.0895,"lo2":-89.0444,"dy":0.0017,"dx":0.0017,"nx":28,"ny":28,"refTime":"2024-10-03T21:00:00:Z","depth":0,"parameterNumber":3,"parameterNumberName":"V-component_of_WINDS"},"data":[0,0,0,0,0,0,0,0,0,0,0,0,0,0,0,0,0,0,0,0,0,0,0,0,0,0,0,0,0,0,0,0,0,0,0,0,0,0,0,0,0,0,0,0,0,0,0,0,0,0,0,0,0,0,0,0,0,0,0.8451,0.8451,0,0.8476,0.8476,0.8476,0.8483,0.8483,0.8482,0.8482,0.8507,0.8508,0.8509,0,0,0,0,0,0,0,0,0,0,0,0,0,0.841,0.8411,0.8451,0.8451,0.8452,0.8476,0.8476,0.8477,0.8483,0.8483,0.8482,0.8482,0.8507,0.8508,0.8509,0,0,0,0,0,0,0,0,0,0,0,0,0,0.8431,0.8411,0.8451,0.8458,0.8459,0.8476,0.8476,0.8477,0.8483,0.8483,0.8482,0.8482,0.8506,0.8508,0.8509,0.8521,0,0,0.8512,0.8513,0,0,0,0,0,0,0,0,0.8429,0.8432,0.8456,0.8457,0.8458,0.8476,0.8471,0.8491,0.8483,0.8474,0.8482,0.8482,0.8497,0.8499,0.8504,0.8522,0.8523,0.8513,0.8513,0.8514,0.8514,0,0,0,0,0,0,0,0.8428,0.8431,0.8461,0.8457,0.8458,0.846,0.8463,0.8475,0.8486,0.8474,0.8475,0.8478,0.8497,0.8503,0.8505,0.8523,0.8512,0.8514,0.8514,0.8515,0.8556,0.8556,0,0,0,0,0,0,0.8425,0.843,0.846,0.8462,0.8443,0.8461,0.8464,0.8471,0.8486,0.8488,0.8478,0.8478,0.8501,0.8503,0.8505,0.8522,0.8514,0.8515,0.8516,0.8555,0.8556,0.8556,0,0,0,0,0,0,0.8424,0.8428,0.8459,0.8446,0.845,0.8462,0.8469,0.8471,0.8477,0.8489,0.8491,0.8481,0.8501,0.8504,0.8518,0.8523,0.8515,0.8517,0.8555,0.8555,0.8556,0.8555,0,0,0,0,0,0,0.8423,0.8428,0.8432,0.8446,0.8451,0.847,0.847,0.8472,0.8479,0.8479,0.8493,0.8495,0.8501,0.8516,0.8519,0.8525,0.8517,0.8554,0.8555,0.8556,0.8554,0.8555,0.8556,0,0,0,0,0,0.8422,0.843,0.8432,0.8436,0.8456,0.8471,0.8473,0.8481,0.8479,0.8484,0.8492,0.8494,0.8522,0.8517,0.8521,0.8527,0.8554,0.8555,0.8556,0.8554,0.8555,0.8556,0,0,0,0,0,0,0.8415,0.8432,0.8434,0.8447,0.8458,0.8472,0.8478,0.8481,0.8492,0.8491,0.85,0.8503,0.8517,0.8523,0.8517,0.8541,0.8538,0.854,0.8536,0.8537,0.8538,0.8536,0.8518,0,0,0,0,0,0.8415,0.8425,0.844,0.845,0.8455,0.8466,0.8472,0.8477,0.8488,0.8492,0.8501,0.8512,0.8523,0.8531,0.8541,0.8556,0.856,0.8562,0.8563,0.8563,0.8565,0.8575,0.8577,0.8559,0.8559,0.8559,0,0,0.8415,0.8426,0.8431,0.8449,0.8457,0.8468,0.8469,0.848,0.8489,0.8494,0.8508,0.8515,0.8528,0.8542,0.8549,0.8548,0.8571,0.8564,0.8565,0.8566,0.8576,0.8578,0.8579,0.8559,0.8559,0.8559,0,0,0.8421,0.843,0.844,0.8449,0.8463,0.847,0.8473,0.8487,0.8493,0.8507,0.8512,0.8523,0.8541,0.8551,0.8558,0.8571,0.8574,0.8574,0.8578,0.8588,0.859,0.8591,0.8597,0.8599,0.8576,0.8576,0.8576,0,0.8419,0.8436,0.8445,0.8456,0.8464,0.8471,0.8482,0.8491,0.8507,0.8513,0.8512,0.8537,0.8546,0.8564,0.8568,0.8573,0.8577,0.8573,0.8589,0.859,0.8592,0.8597,0.8599,0.8576,0.8576,0.8576,0.8576,0,0.8434,0.8446,0.8453,0.847,0.8478,0.849,0.8501,0.8509,0.8514,0.8522,0.8538,0.8549,0.8563,0.8568,0.8572,0.8588,0.8587,0.8587,0.8585,0.8593,0.8599,0.8601,0.8576,0.8576,0.8576,0.8576,0,0,0.8434,0.8458,0.846,0.8469,0.8486,0.8495,0.8508,0.8523,0.853,0.8542,0.8554,0.8571,0.8572,0.8581,0.8586,0.8595,0.8607,0.8595,0.8595,0.8597,0.8626,0.8626,0.8628,0.8609,0.8609,0.861,0.8626,0,0.8443,0.8466,0.8475,0.8493,0.8505,0.8513,0.8524,0.8536,0.8545,0.8557,0.8566,0.8579,0.8579,0.8584,0.8593,0.8603,0.8613,0.8602,0.862,0.8621,0.8617,0.8631,0.863,0.8644,0.8628,0.8628,0.8628,0,0.8455,0.8469,0.8489,0.8507,0.8512,0.8522,0.8537,0.8548,0.8563,0.8569,0.858,0.8586,0.86,0.8597,0.8618,0.8611,0.862,0.8626,0.8627,0.8629,0.8625,0.8634,0.8649,0.8651,0.8632,0.8631,0.8631,0,0.8455,0.8478,0.8493,0.8501,0.8521,0.8528,0.8537,0.8552,0.8561,0.8575,0.8582,0.8597,0.8605,0.8618,0.8628,0.8625,0.8649,0.8646,0.8655,0.8655,0.8659,0.8659,0.8676,0.8664,0.8664,0.8664,0.8664,0,0.8464,0.8476,0.8494,0.8503,0.8518,0.8529,0.8544,0.8553,0.8567,0.8579,0.8586,0.8598,0.8611,0.8624,0.8633,0.865,0.8653,0.8659,0.8661,0.8659,0.8658,0.8664,0.8664,0.8664,0.8664,0.8664,0.8664,0,0.8465,0.8478,0.8495,0.8515,0.852,0.853,0.8546,0.8557,0.8567,0.8582,0.8586,0.8602,0.8618,0.8631,0.8651,0.8657,0.8676,0.8678,0.8671,0.8672,0.8681,0.868,0.8703,0.8707,0.8691,0.8691,0.8691,0,0.847,0.848,0.8501,0.851,0.8519,0.8533,0.8544,0.8556,0.8566,0.8586,0.8594,0.8611,0.8625,0.8652,0.8665,0.8682,0.8685,0.8692,0.8687,0.8685,0.8686,0.8686,0.8687,0.8692,0.8692,0.8692,0.8692,0,0.8477,0.8484,0.8498,0.8516,0.8528,0.8542,0.8556,0.8563,0.8578,0.859,0.8607,0.8619,0.8641,0.8659,0.8678,0.8688,0.8693,0.8694,0.8697,0.8694,0.8691,0.8694,0.8674,0.8693,0.8693,0.8693,0.8693,0.8693,0.8481,0.8491,0.8508,0.8525,0.8537,0.8551,0.8562,0.8574,0.8589,0.8609,0.8616,0.8634,0.8651,0.8677,0.8688,0.8703,0.8703,0.8707,0.8708,0.8709,0.8709,0.8688,0.8706,0.8706,0.8706,0.8706,0.8706,0,0.849,0.8502,0.8517,0.8538,0.8551,0.8556,0.8573,0.8584,0.86,0.8615,0.863,0.8652,0.867,0.8686,0.8704,0.8714,0.8717,0.8719,0.8718,0.8721,0.8708,0.8704,0.8716,0.8716,0.8716,0.8716,0.8716,0.8716,0.8496,0.8514,0.8523,0.8547,0.8559,0.8578,0.8587,0.8601,0.8614,0.8637,0.8653,0.8663,0.8679,0.87,0.8717,0.8722,0.8729,0.873,0.8735,0.8722,0.8721,0.872,0.8716,0.8731,0.8731,0.8746,0.8747,0.8747]}]]